N124MC KNEW-KHUM

Flight info

Callsign N124MC
Flight time N/A
Altitude 1500
Route VFR
Aircraft BE24/L-VGD/C

Departure

Time 2026-05-06 21:17
Airport Lakefront Airport (KNEW)

Arrival

Time N/A
Airport Houma Terrebonne Airport (KHUM)
Time Latitude Longitude Altitude Speed Heading
2026-05-06 21:10 30.04294 -90.02546 10 ft 0 kts 310°
2026-05-06 21:14 30.04270 -90.02585 10 ft 15 kts 222°
2026-05-06 21:14 30.04252 -90.02671 10 ft 11 kts 315°
2026-05-06 21:14 30.04340 -90.02695 11 ft 19 kts 359°
2026-05-06 21:14 30.04513 -90.02698 9 ft 30 kts
2026-05-06 21:15 30.04711 -90.02700 11 ft 28 kts 359°
2026-05-06 21:15 30.04861 -90.02702 10 ft 22 kts
2026-05-06 21:15 30.05007 -90.02725 9 ft 17 kts 284°
2026-05-06 21:15 30.04984 -90.02767 9 ft 1 kts 174°
2026-05-06 21:16 30.04784 -90.02763 9 ft 53 kts 179°
2026-05-06 21:16 30.04338 -90.02755 119 ft 69 kts 181°
2026-05-06 21:16 30.03818 -90.02754 317 ft 79 kts 185°
2026-05-06 21:16 30.03325 -90.03068 567 ft 85 kts 211°
2026-05-06 21:17 30.02809 -90.03398 813 ft 82 kts 207°
2026-05-06 21:17 30.02346 -90.03734 1061 ft 76 kts 209°
2026-05-06 21:17 30.01896 -90.04059 1294 ft 74 kts 206°
2026-05-06 21:17 30.01475 -90.04359 1484 ft 71 kts 207°
2026-05-06 21:18 30.01016 -90.04696 1502 ft 85 kts 208°
2026-05-06 21:18 30.00497 -90.05094 1509 ft 95 kts 210°
2026-05-06 21:18 29.99912 -90.05529 1513 ft 103 kts 208°
2026-05-06 21:18 29.99293 -90.05981 1505 ft 107 kts 209°
2026-05-06 21:19 29.98666 -90.06469 1512 ft 109 kts 210°
2026-05-06 21:19 29.98036 -90.06973 1500 ft 111 kts 208°
2026-05-06 21:19 29.97392 -90.07491 1504 ft 115 kts 212°
2026-05-06 21:19 29.96706 -90.07998 1507 ft 120 kts 210°
2026-05-06 21:20 29.96004 -90.08537 1504 ft 121 kts 208°
2026-05-06 21:20 29.95326 -90.09081 1511 ft 117 kts 210°
2026-05-06 21:20 29.94643 -90.09611 1502 ft 120 kts 211°
2026-05-06 21:20 29.93947 -90.10149 1502 ft 120 kts 210°
2026-05-06 21:21 29.93292 -90.10713 1499 ft 119 kts 218°
2026-05-06 21:21 29.92794 -90.11498 1504 ft 122 kts 230°
2026-05-06 21:21 29.92302 -90.12284 1497 ft 119 kts 228°
2026-05-06 21:21 29.91807 -90.13050 1502 ft 119 kts 225°
2026-05-06 21:22 29.91299 -90.13824 1511 ft 124 kts 225°
2026-05-06 21:22 29.90761 -90.14640 1501 ft 132 kts 229°
2026-05-06 21:22 29.90199 -90.15497 1484 ft 135 kts 228°
2026-05-06 21:22 29.89635 -90.16354 1483 ft 134 kts 227°
2026-05-06 21:23 29.89081 -90.17196 1478 ft 129 kts 226°
2026-05-06 21:23 29.88540 -90.18016 1487 ft 129 kts 228°
2026-05-06 21:23 29.87998 -90.18836 1477 ft 127 kts 227°
2026-05-06 21:23 29.87474 -90.19631 1488 ft 122 kts 227°
2026-05-06 21:24 29.86968 -90.20398 1493 ft 120 kts 227°
2026-05-06 21:24 29.86463 -90.21160 1497 ft 120 kts 227°
2026-05-06 21:24 29.85962 -90.21921 1492 ft 118 kts 225°
2026-05-06 21:24 29.85465 -90.22673 1495 ft 118 kts 226°
2026-05-06 21:25 29.84966 -90.23427 1496 ft 117 kts 226°
2026-05-06 21:25 29.84475 -90.24170 1497 ft 116 kts 225°
2026-05-06 21:25 29.83994 -90.24899 1501 ft 114 kts 224°
2026-05-06 21:25 29.83510 -90.25628 1485 ft 115 kts 225°
2026-05-06 21:26 29.83026 -90.26361 1499 ft 116 kts 225°
2026-05-06 21:26 29.82541 -90.27095 1502 ft 116 kts 225°
2026-05-06 21:26 29.82050 -90.27836 1508 ft 117 kts 226°